Time,TemperatureF,DewpointF,PressureIn,WindDirection,WindDirectionDegrees,WindSpeedMPH,WindSpeedGustMPH,Humidity,HourlyPrecipIn,Conditions,Clouds,dailyrainin,SoftwareType,DateUTC
2013-05-23 00:03:00,52.0,51.0,29.92,SW,218,0.0,0.0,98,0.00,,,0.98,,2013-05-23 04:03:00,
2013-05-23 00:12:00,52.0,51.0,29.92,SW,218,0.0,0.0,98,0.00,,,0.98,,2013-05-23 04:12:00,
2013-05-23 00:22:00,52.0,51.0,29.91,SW,218,0.0,0.0,98,0.00,,,0.98,,2013-05-23 04:22:00,
2013-05-23 00:33:00,52.0,51.0,29.91,SW,218,0.0,0.0,98,0.00,,,0.98,,2013-05-23 04:33:00,
2013-05-23 00:43:00,52.0,51.0,29.91,SW,218,0.0,0.0,98,0.00,,,0.98,,2013-05-23 04:43:00,
2013-05-23 00:52:00,51.0,50.0,29.90,SW,218,0.0,0.0,98,0.00,,,0.95,,2013-05-23 04:52:00,
2013-05-23 01:02:00,51.0,50.0,29.90,SW,218,0.0,0.0,98,0.00,,,0.95,,2013-05-23 05:02:00,
2013-05-23 01:11:00,51.0,50.0,29.90,SW,218,0.0,0.0,98,0.00,,,0.95,,2013-05-23 05:11:00,
2013-05-23 01:22:00,51.0,50.0,29.89,SW,217,0.0,0.0,98,0.01,,,0.96,,2013-05-23 05:22:00,
2013-05-23 01:32:00,51.0,50.0,29.89,SW,217,0.0,0.0,98,0.01,,,0.96,,2013-05-23 05:32:00,
2013-05-23 01:43:00,51.0,50.0,29.89,SW,218,0.0,0.0,98,0.01,,,0.58,,2013-05-23 05:43:00,
2013-05-23 01:52:00,51.0,50.0,29.89,SW,218,0.0,0.0,98,0.01,,,0.58,,2013-05-23 05:52:00,
2013-05-23 02:02:00,51.0,50.0,29.89,SW,218,0.0,0.0,98,0.01,,,0.58,,2013-05-23 06:02:00,
2013-05-23 02:12:00,51.0,50.0,29.89,SW,218,0.0,0.0,98,0.01,,,0.58,,2013-05-23 06:12:00,
2013-05-23 02:22:00,51.0,50.0,29.89,SW,217,0.0,0.0,98,0.00,,,0.58,,2013-05-23 06:22:00,
2013-05-23 02:32:00,51.0,50.0,29.89,SW,217,0.0,0.0,98,0.00,,,0.58,,2013-05-23 06:32:00,
2013-05-23 02:42:00,51.0,50.0,29.89,SW,217,0.0,0.0,98,0.00,,,0.58,,2013-05-23 06:42:00,
2013-05-23 02:52:00,51.0,50.0,29.89,SW,218,0.0,0.0,98,0.00,,,0.48,,2013-05-23 06:52:00,
2013-05-23 03:02:00,51.0,50.0,29.89,SW,218,0.0,0.0,98,0.00,,,0.48,,2013-05-23 07:02:00,
2013-05-23 03:11:00,51.0,50.0,29.89,SW,218,0.0,0.0,98,0.00,,,0.48,,2013-05-23 07:11:00,
2013-05-23 03:22:00,51.0,50.0,29.87,SW,218,0.0,0.0,98,0.00,,,0.48,,2013-05-23 07:22:00,
2013-05-23 03:32:00,51.0,50.0,29.87,SW,218,0.0,0.0,98,0.00,,,0.48,,2013-05-23 07:32:00,
2013-05-23 03:42:00,51.0,50.0,29.87,SW,218,0.0,0.0,98,0.00,,,0.48,,2013-05-23 07:42:00,
2013-05-23 03:59:00,51.0,50.0,29.86,SW,218,0.0,0.0,98,0.00,,,0.44,,2013-05-23 07:59:00,
2013-05-23 04:12:00,51.0,50.0,29.86,SW,218,0.0,0.0,98,0.00,,,0.44,,2013-05-23 08:12:00,
2013-05-23 04:22:00,51.0,50.0,29.85,SW,218,0.0,0.0,98,0.00,,,0.44,,2013-05-23 08:22:00,
2013-05-23 04:32:00,51.0,50.0,29.85,SW,218,0.0,0.0,98,0.00,,,0.44,,2013-05-23 08:32:00,
2013-05-23 04:42:00,51.0,50.0,29.85,SW,218,0.0,0.0,98,0.00,,,0.44,,2013-05-23 08:42:00,
2013-05-23 04:52:00,51.0,50.0,29.85,SW,218,0.0,0.0,98,0.00,,,0.22,,2013-05-23 08:52:00,
2013-05-23 05:02:00,51.0,50.0,29.85,SW,218,0.0,0.0,98,0.00,,,0.22,,2013-05-23 09:02:00,
2013-05-23 05:11:00,51.0,50.0,29.85,SW,218,0.0,0.0,98,0.00,,,0.22,,2013-05-23 09:11:00,
2013-05-23 05:22:00,51.0,50.0,29.86,SW,218,0.0,0.0,98,0.00,,,0.22,,2013-05-23 09:22:00,
2013-05-23 05:33:00,51.0,50.0,29.86,SW,218,0.0,0.0,98,0.00,,,0.22,,2013-05-23 09:33:00,
2013-05-23 05:42:00,51.0,50.0,29.86,SW,218,0.0,0.0,98,0.00,,,0.22,,2013-05-23 09:42:00,
2013-05-23 05:53:00,51.0,50.0,29.87,SW,218,0.0,0.0,98,0.00,,,0.08,,2013-05-23 09:53:00,
2013-05-23 06:03:00,51.0,50.0,29.87,SW,218,0.0,0.0,98,0.00,,,0.08,,2013-05-23 10:03:00,
2013-05-23 06:13:00,51.0,50.0,29.87,SW,218,0.0,0.0,98,0.00,,,0.08,,2013-05-23 10:13:00,
2013-05-23 06:22:00,51.0,50.0,29.88,SW,218,0.0,0.0,98,0.00,,,0.08,,2013-05-23 10:22:00,
2013-05-23 06:32:00,51.0,50.0,29.88,SW,218,0.0,0.0,98,0.00,,,0.08,,2013-05-23 10:32:00,
2013-05-23 06:42:00,51.0,50.0,29.88,SW,218,0.0,0.0,98,0.00,,,0.08,,2013-05-23 10:42:00,
2013-05-23 06:52:00,51.0,51.0,29.89,SW,218,0.0,0.0,99,0.00,,,0.08,,2013-05-23 10:52:00,
2013-05-23 07:02:00,51.0,51.0,29.89,SW,218,0.0,0.0,99,0.00,,,0.08,,2013-05-23 11:02:00,
2013-05-23 07:11:00,51.0,51.0,29.89,SW,218,0.0,0.0,99,0.00,,,0.08,,2013-05-23 11:11:00,
2013-05-23 07:22:00,51.0,51.0,29.88,SW,218,0.0,0.0,99,0.00,,,0.08,,2013-05-23 11:22:00,
2013-05-23 07:32:00,51.0,51.0,29.88,SW,218,0.0,0.0,99,0.00,,,0.08,,2013-05-23 11:32:00,
2013-05-23 07:42:00,51.0,51.0,29.88,SW,218,0.0,0.0,99,0.00,,,0.08,,2013-05-23 11:42:00,
2013-05-23 07:52:00,52.0,52.0,29.88,SW,218,0.0,0.0,99,0.00,,,0.08,,2013-05-23 11:52:00,
2013-05-23 08:01:00,52.0,52.0,29.88,SW,218,0.0,0.0,99,0.00,,,0.08,,2013-05-23 12:01:00,
2013-05-23 08:12:00,52.0,52.0,29.88,SW,218,0.0,0.0,99,0.00,,,0.08,,2013-05-23 12:12:00,
2013-05-23 08:21:00,52.0,52.0,29.88,SW,218,0.0,0.0,99,0.00,,,0.08,,2013-05-23 12:21:00,
2013-05-23 08:32:00,52.0,52.0,29.88,SW,218,0.0,0.0,99,0.00,,,0.08,,2013-05-23 12:32:00,
2013-05-23 08:42:00,52.0,52.0,29.88,SW,218,0.0,0.0,99,0.00,,,0.08,,2013-05-23 12:42:00,
2013-05-23 08:52:00,53.0,53.0,29.88,SW,218,0.0,0.0,99,0.00,,,0.08,,2013-05-23 12:52:00,
2013-05-23 09:01:00,53.0,53.0,29.88,SW,218,0.0,0.0,99,0.00,,,0.08,,2013-05-23 13:01:00,
2013-05-23 09:11:00,53.0,53.0,29.88,SW,218,0.0,0.0,99,0.00,,,0.08,,2013-05-23 13:11:00,
2013-05-23 09:22:00,54.0,54.0,29.88,SW,218,0.0,0.0,99,0.00,,,0.08,,2013-05-23 13:22:00,
2013-05-23 09:32:00,54.0,54.0,29.88,SW,218,0.0,0.0,99,0.00,,,0.08,,2013-05-23 13:32:00,
2013-05-23 09:42:00,54.0,54.0,29.88,SW,218,0.0,0.0,99,0.00,,,0.08,,2013-05-23 13:42:00,
2013-05-23 09:52:00,54.0,54.0,29.86,SW,218,0.0,0.0,99,0.00,,,0.08,,2013-05-23 13:52:00,
2013-05-23 10:02:00,54.0,54.0,29.86,SW,218,0.0,0.0,99,0.00,,,0.08,,2013-05-23 14:02:00,
2013-05-23 10:11:00,54.0,54.0,29.86,SW,218,0.0,0.0,99,0.00,,,0.08,,2013-05-23 14:11:00,
2013-05-23 10:21:00,55.0,55.0,29.87,SSW,211,0.0,0.0,99,0.00,,,0.08,,2013-05-23 14:21:00,
2013-05-23 10:32:00,55.0,55.0,29.87,SSW,211,0.0,0.0,99,0.00,,,0.08,,2013-05-23 14:32:00,
2013-05-23 10:42:00,55.0,55.0,29.87,SSW,211,0.0,0.0,99,0.00,,,0.08,,2013-05-23 14:42:00,
2013-05-23 10:52:00,56.0,56.0,29.86,SSW,211,0.0,0.0,99,0.00,,,0.08,,2013-05-23 14:52:00,
2013-05-23 11:01:00,56.0,56.0,29.86,SSW,211,0.0,0.0,99,0.00,,,0.08,,2013-05-23 15:01:00,
2013-05-23 11:11:00,56.0,56.0,29.86,SSW,211,0.0,0.0,99,0.00,,,0.08,,2013-05-23 15:11:00,
2013-05-23 11:22:00,56.0,56.0,29.86,SW,223,0.0,3.0,99,0.00,,,0.08,,2013-05-23 15:22:00,
2013-05-23 11:33:00,56.0,56.0,29.86,SW,223,0.0,3.0,99,0.00,,,0.08,,2013-05-23 15:33:00,
2013-05-23 11:43:00,56.0,56.0,29.86,SW,223,0.0,3.0,99,0.00,,,0.08,,2013-05-23 15:43:00,
2013-05-23 11:53:00,56.0,55.0,29.85,SW,223,0.0,0.0,98,0.00,,,0.08,,2013-05-23 15:53:00,
2013-05-23 12:03:00,56.0,55.0,29.85,SW,223,0.0,0.0,98,0.00,,,0.08,,2013-05-23 16:03:00,
2013-05-23 12:13:00,56.0,55.0,29.85,SW,223,0.0,0.0,98,0.00,,,0.08,,2013-05-23 16:13:00,
2013-05-23 12:23:00,56.0,55.0,29.86,SSW,204,0.0,1.0,98,0.01,,,0.09,,2013-05-23 16:23:00,
2013-05-23 12:34:00,56.0,55.0,29.86,SSW,204,0.0,1.0,98,0.01,,,0.09,,2013-05-23 16:34:00,
2013-05-23 12:43:00,56.0,55.0,29.86,SSW,204,0.0,1.0,98,0.01,,,0.09,,2013-05-23 16:43:00,
2013-05-23 12:52:00,56.0,55.0,29.86,SW,226,0.0,2.0,98,0.01,,,0.09,,2013-05-23 16:52:00,
2013-05-23 13:03:00,56.0,55.0,29.86,SW,226,0.0,2.0,98,0.01,,,0.09,,2013-05-23 17:03:00,
2013-05-23 13:11:00,56.0,55.0,29.86,SW,226,0.0,2.0,98,0.01,,,0.09,,2013-05-23 17:11:00,
2013-05-23 13:23:00,56.0,55.0,29.86,SW,226,0.0,2.0,98,0.01,,,0.09,,2013-05-23 17:23:00,
2013-05-23 13:33:00,58.0,58.0,29.85,SW,226,0.0,0.0,99,0.00,,,0.09,,2013-05-23 17:33:00,
2013-05-23 13:43:00,58.0,58.0,29.85,SW,226,0.0,0.0,99,0.00,,,0.09,,2013-05-23 17:43:00,
2013-05-23 13:53:00,61.0,61.0,29.83,SW,226,0.0,3.0,99,0.00,,,0.09,,2013-05-23 17:53:00,
2013-05-23 14:01:00,61.0,61.0,29.83,SW,226,0.0,3.0,99,0.00,,,0.09,,2013-05-23 18:01:00,
2013-05-23 14:11:00,61.0,61.0,29.83,SW,226,0.0,3.0,99,0.00,,,0.09,,2013-05-23 18:11:00,
2013-05-23 14:22:00,63.0,62.0,29.81,SW,226,0.0,0.0,97,0.00,,,0.09,,2013-05-23 18:22:00,
2013-05-23 14:32:00,63.0,62.0,29.81,SW,226,0.0,0.0,97,0.00,,,0.09,,2013-05-23 18:32:00,
2013-05-23 14:42:00,63.0,62.0,29.81,SW,226,0.0,0.0,97,0.00,,,0.09,,2013-05-23 18:42:00,
2013-05-23 14:52:00,65.0,64.0,29.80,SW,226,0.0,0.0,95,0.00,,,0.09,,2013-05-23 18:52:00,
2013-05-23 15:01:00,65.0,64.0,29.80,SW,226,0.0,0.0,95,0.00,,,0.09,,2013-05-23 19:01:00,
2013-05-23 15:11:00,65.0,64.0,29.80,SW,226,0.0,0.0,95,0.00,,,0.09,,2013-05-23 19:11:00,
2013-05-23 15:21:00,70.0,67.0,29.80,WNW,286,0.0,2.0,90,0.00,,,0.09,,2013-05-23 19:21:00,
2013-05-23 15:32:00,70.0,67.0,29.80,WNW,286,0.0,2.0,90,0.00,,,0.09,,2013-05-23 19:32:00,
2013-05-23 15:42:00,70.0,67.0,29.80,WNW,286,0.0,2.0,90,0.00,,,0.09,,2013-05-23 19:42:00,
2013-05-23 15:52:00,72.0,69.0,29.80,WNW,285,0.0,1.0,91,0.00,,,0.09,,2013-05-23 19:52:00,
2013-05-23 16:02:00,72.0,69.0,29.80,WNW,285,0.0,1.0,91,0.00,,,0.09,,2013-05-23 20:02:00,
2013-05-23 16:12:00,72.0,69.0,29.80,WNW,285,0.0,1.0,91,0.00,,,0.09,,2013-05-23 20:12:00,
2013-05-23 16:21:00,74.0,69.0,29.80,ESE,108,0.0,1.0,85,0.00,,,0.09,,2013-05-23 20:21:00,
2013-05-23 16:32:00,74.0,69.0,29.80,ESE,108,0.0,1.0,85,0.00,,,0.09,,2013-05-23 20:32:00,
2013-05-23 16:42:00,74.0,69.0,29.80,ESE,108,0.0,1.0,85,0.00,,,0.09,,2013-05-23 20:42:00,
2013-05-23 16:52:00,74.0,69.0,29.80,ESE,108,0.0,1.0,85,0.00,,,0.09,,2013-05-23 20:52:00,
2013-05-23 17:01:00,74.0,68.0,29.79,NNE,21,0.0,6.0,83,0.00,,,0.09,,2013-05-23 21:01:00,
2013-05-23 17:11:00,74.0,68.0,29.79,NNE,21,0.0,6.0,83,0.00,,,0.09,,2013-05-23 21:11:00,
2013-05-23 17:22:00,73.0,68.0,29.80,West,269,0.0,4.0,84,0.00,,,0.09,,2013-05-23 21:22:00,
2013-05-23 17:32:00,73.0,68.0,29.80,West,269,0.0,4.0,84,0.00,,,0.09,,2013-05-23 21:32:00,
2013-05-23 17:43:00,73.0,68.0,29.80,West,269,0.0,4.0,84,0.00,,,0.09,,2013-05-23 21:43:00,
2013-05-23 17:53:00,72.0,67.0,29.79,SSW,206,0.0,2.0,84,0.00,,,0.09,,2013-05-23 21:53:00,
2013-05-23 18:03:00,72.0,67.0,29.79,SSW,206,0.0,2.0,84,0.00,,,0.09,,2013-05-23 22:03:00,
2013-05-23 18:12:00,72.0,67.0,29.79,SSW,206,0.0,2.0,84,0.00,,,0.09,,2013-05-23 22:12:00,
2013-05-23 18:22:00,71.0,67.0,29.79,WSW,245,0.0,1.0,88,0.00,,,0.09,,2013-05-23 22:22:00,
2013-05-23 18:33:00,71.0,67.0,29.79,WSW,245,0.0,1.0,88,0.00,,,0.09,,2013-05-23 22:33:00,
2013-05-23 18:42:00,71.0,67.0,29.79,WSW,245,0.0,1.0,88,0.00,,,0.09,,2013-05-23 22:42:00,
2013-05-23 18:52:00,69.0,67.0,29.79,NW,324,0.0,0.0,93,0.03,,,0.12,,2013-05-23 22:52:00,
2013-05-23 19:02:00,69.0,67.0,29.79,NW,324,0.0,0.0,93,0.03,,,0.12,,2013-05-23 23:02:00,
2013-05-23 19:12:00,69.0,67.0,29.79,NW,324,0.0,0.0,93,0.03,,,0.12,,2013-05-23 23:12:00,
2013-05-23 19:21:00,68.0,67.0,29.79,SW,214,0.0,1.0,95,0.03,,,0.12,,2013-05-23 23:21:00,
2013-05-23 19:32:00,68.0,67.0,29.79,SW,214,0.0,1.0,95,0.03,,,0.12,,2013-05-23 23:32:00,
2013-05-23 19:42:00,68.0,67.0,29.79,SW,214,0.0,1.0,95,0.03,,,0.12,,2013-05-23 23:42:00,
2013-05-23 19:52:00,67.0,66.0,29.79,SW,216,0.0,1.0,96,0.00,,,0.12,,2013-05-23 23:52:00,
2013-05-23 20:01:00,67.0,66.0,29.79,SW,216,0.0,1.0,96,0.00,,,0.12,,2013-05-24 00:01:00,
2013-05-23 20:12:00,67.0,66.0,29.79,SW,216,0.0,1.0,96,0.00,,,0.12,,2013-05-24 00:12:00,
2013-05-23 20:21:00,68.0,66.0,29.80,WSW,240,0.0,2.0,94,0.00,,,0.12,,2013-05-24 00:21:00,
2013-05-23 20:32:00,68.0,66.0,29.80,WSW,240,0.0,2.0,94,0.00,,,0.12,,2013-05-24 00:32:00,
2013-05-23 20:42:00,68.0,66.0,29.80,WSW,240,0.0,2.0,94,0.00,,,0.12,,2013-05-24 00:42:00,
2013-05-23 20:52:00,68.0,66.0,29.79,South,182,1.0,4.0,93,0.00,,,0.05,,2013-05-24 00:52:00,
2013-05-23 21:01:00,68.0,66.0,29.79,South,182,1.0,4.0,93,0.00,,,0.05,,2013-05-24 01:01:00,
2013-05-23 21:12:00,68.0,66.0,29.79,South,182,1.0,4.0,93,0.00,,,0.05,,2013-05-24 01:12:00,
2013-05-23 21:22:00,68.0,66.0,29.79,SW,235,0.0,1.0,92,0.00,,,0.05,,2013-05-24 01:22:00,
2013-05-23 21:32:00,68.0,66.0,29.79,SW,235,0.0,1.0,92,0.00,,,0.05,,2013-05-24 01:32:00,
2013-05-23 21:42:00,68.0,66.0,29.79,SW,235,0.0,1.0,92,0.00,,,0.05,,2013-05-24 01:42:00,
2013-05-23 21:52:00,68.0,65.0,29.78,South,170,0.0,5.0,91,0.00,,,0.05,,2013-05-24 01:52:00,
2013-05-23 22:02:00,68.0,65.0,29.78,South,170,0.0,5.0,91,0.00,,,0.05,,2013-05-24 02:02:00,
2013-05-23 22:12:00,68.0,65.0,29.78,South,170,0.0,5.0,91,0.00,,,0.05,,2013-05-24 02:12:00,
2013-05-23 22:22:00,68.0,65.0,29.78,SSW,207,0.0,2.0,90,0.00,,,0.05,,2013-05-24 02:22:00,
2013-05-23 22:32:00,68.0,65.0,29.78,SSW,207,0.0,2.0,90,0.00,,,0.05,,2013-05-24 02:32:00,
2013-05-23 22:42:00,68.0,65.0,29.78,SSW,207,0.0,2.0,90,0.00,,,0.05,,2013-05-24 02:42:00,
2013-05-23 22:52:00,68.0,65.0,29.79,South,180,0.0,4.0,91,0.00,,,0.05,,2013-05-24 02:52:00,
2013-05-23 23:02:00,68.0,65.0,29.79,South,180,0.0,4.0,91,0.00,,,0.05,,2013-05-24 03:02:00,
2013-05-23 23:11:00,68.0,65.0,29.79,South,180,0.0,4.0,91,0.00,,,0.05,,2013-05-24 03:11:00,
2013-05-23 23:22:00,67.0,65.0,29.78,SSW,202,0.0,1.0,93,0.00,,,0.05,,2013-05-24 03:22:00,
2013-05-23 23:33:00,67.0,65.0,29.78,SSW,202,0.0,1.0,93,0.00,,,0.05,,2013-05-24 03:33:00,
2013-05-23 23:42:00,67.0,65.0,29.78,SSW,202,0.0,1.0,93,0.00,,,0.05,,2013-05-24 03:42:00,
2013-05-23 23:53:00,66.0,65.0,29.77,SSW,200,0.0,3.0,95,0.04,,,0.09,,2013-05-24 03:53:00,